Showing default

COSMOS 2251, 22675

Orbit data source: Space-Track

COSMOS 2251, 22675 is a payload satellite owned by VKS (CIS) in LEO that was launched on Wed, 16 Jun 1993 UTC via a KOSMOS 11K65M launch vehicle from the Plesetsk Missile And Space Complex (PKMTR). Payload-class satellites include a variety of spacecraft equipped with specific instruments for various scientific and technological missions. These include communications satellites like Starlink; space stations such as the ISS; scientific satellites like the Hubble; Earth observation satellites from companies like Planet Labs, Umbra, and HawkEye 360; GPS; miniature CubeSats for education and research; and military/defense satellites.

Loading next visibility...
Identifier
22675, 1993-036A
Orbit
LEO
Country
Flag of CISCIS
Related business
Manufacturer
NPO PM
Mission
Defense Communications
Bus & Motor
STRELA-2M, Unknown motor
Mass
800 kg wet, 800 kg dry
Launch date (UTC)
1993-06-16 (33 years ago)
Launch vehicle
KOSMOS 11K65M
Launch site
Plesetsk Missile And Space Complex (PKMTR)
Object type
Payload
Rocket body
Debris
Shape & HBR
Cyl, 1.5 m
Radar Cross Section
6.283 m², Large (>1 m²)

Expand to show TLE details & history
Last TLE update: 8 hours ago

TLE from 8 hours ago
0 COSMOS 2251
1 22675U 93036A   26062.43491295  .00000142  00000-0  60981-4 0  9991
2 22675  74.0406 168.4439 0025733 235.1039 124.7693 14.33232320709295
Epoch: 2026-03-03T10:26Z
TLE epoch observation values (Epoch: 2026-03-03T10:26:16.478Z)
Latitude
-0.00013°
Longitude
-149.33881°
Altitude
794.094 km
Speed
7.451 km/s
True Right ascension
11h 13m 46s
True Declination
0° 00' 00"
Sunlit
Object was in full shadow at epoch
Visualization orbit readout
Latitude
Unknown
Longitude
Unknown
Altitude
Unknown
Speed
Unknown
Apparent Right ascension
Unknown
Apparent Declination
Unknown
Sunlit
N/A
Visualization observer readout
Local Sidereal Time
21:50:11
Azimuth
Unknown
Elevation
Unknown
Doppler factor
Unknown
Orbital elements
Apogee altitude
796.99 km
Perigee altitude
760.157 km
Semi-major axis
7,156.71 km
Eccentricity
0.00257
Inclination
74.0406°
RAAN
168.4439°
Arg. of periapsis
235.1039°
True anomaly
125.01109°
Mean anomaly
124.7693°
Eccentric anomaly
124.89024°
Mean motion
3.58487 °/min
Orbital period
100.42 mins
BSTAR
0.000060981
Loading maneuver chart data...
Computing Atmospheric mass density...

Documentation

Showing up to 5 results
|